Regional Weather Roundup
Issued by NWS

Home | Current Version | Previous Version | Text Only | Print | Product List | Glossary Off
Versions: 1 2 3 4 5 6 7 8 9 10 11 12 13 14 15 16 17 18 19 20 21 22 23 24 25 26 27

000
ASUS45 KBOU 251307
RWRCO

WEATHER ROUNDUP FOR COLORADO
NATIONAL WEATHER SERVICE DENVER/BOULDER CO
700 AM MDT SUN JUN 25 2017

NOTE: "FAIR" INDICATES FEW OR NO CLOUDS BELOW 12000 FEET WITH NO
SIGNIFICANT WEATHER AND/OR OBSTRUCTIONS TO VISIBILITY.

COZ001>005-013-030-031-251400-
...NORTHWEST COLORADO...

CITY           SKY/WX    TMP DP  RH WIND       PRES   REMARKS
CRAIG          FAIR      46  36  68 CALM      30.36R
HAYDEN         FAIR      48  30  49 S3        30.36R
MEEKER         FAIR      49  32  52 CALM      30.35R
RABBIT EARS PA FAIR      50  25  37 CALM      30.59R
STEAMBOAT SPGS FAIR      43  33  68 CALM      30.38S
WALDEN         FAIR      39  34  81 CALM      30.48R
$$

COZ006>008-011-251400-
...WEST CENTRAL VALLEYS...

CITY           SKY/WX    TMP DP  RH WIND       PRES   REMARKS
GRAND JUNCTION FAIR      66  31  27 SE14      30.21R
MONTROSE       FAIR      56  35  45 S6        30.30R
EAGLE          SUNNY     46  28  49 CALM      30.43R
RIFLE          FAIR      54  28  36 E3        30.31R
DELTA          FAIR      61  29  30 CALM      30.26R
NUCLA          FAIR      55  27  33 CALM      30.30R
$$

COZ017>023-064>068-251400-
...SOUTHWEST COLORADO...

CITY           SKY/WX    TMP DP  RH WIND       PRES   REMARKS
DURANGO        FAIR      53  32  44 N3        30.35R
CORTEZ         FAIR      48  32  53 CALM      30.28R
PAGOSA SPRINGS FAIR      52  34  49 CALM      30.43R
TELLURIDE      FAIR      52  22  30 SE8       30.50R
WOLF CREEK PAS FAIR      45  32  61 SW10      30.72S
$$

COZ009-010-012-014-032>034-037-058>063-251400-
...CENTRAL COLORADO...

CITY           SKY/WX    TMP DP  RH WIND       PRES   REMARKS
ASPEN          FAIR      46  32  58 SE3       30.43R
BUENA VISTA    CLOUDY    51  43  73 CALM      30.49R
COPPER MTN     FAIR      46  28  49 CALM      30.68S
BERTHOUD PASS  FAIR      37  27  65 W13       30.70R
COTTONWOOD PAS CLOUDY    50  41  71 CALM      30.58R
GUNNISON       FAIR      44  34  67 W3        30.47R
KREMMLING      NOT AVBL
LEADVILLE      CLOUDY    48  38  68 N3        30.57S
MONARCH PASS   FAIR      45  39  81 SE3       30.79R
SALIDA         FAIR      54  45  70 W5        30.54R
SUNLIGHT       FAIR      46  23  39 CALM      30.63R
WILKERSON PASS SNOW      41  39  93 W6        30.67S VSB<1/4
$$

COZ069>075-251400-
...SAN LUIS VALLEY/SANGRE DE CRISTO MOUNTAINS...

CITY           SKY/WX    TMP DP  RH WIND       PRES   REMARKS
ALAMOSA        FAIR      49  45  86 CALM      30.43R
DEL NORTE      FAIR      51  35  54 W13       30.46S
LA VETA PASS   CLOUDY    45  43  93 CALM      30.69S
SAGUACHE       FAIR      52  34  50 NW7       30.46R
$$

COZ035-036-038>040-251400-
...NORTHERN COLORADO FRONT RANGE...

CITY           SKY/WX    TMP DP  RH WIND       PRES   REMARKS
DENVER INTL AP FAIR      54  48  80 N6        30.35R
DMNS CITY PARK   N/A     58  49  71 E8        30.37R
AURORA         MOSUNNY   54  50  84 NW3       30.37R
FRONT RANGE AP FAIR      54  50  87 W9        30.36R
ERIE MUNI ARPT FAIR      54  51  89 NW5       30.36R
BOULDER MUN AP FAIR      55  50  82 CALM      30.37R
CENTENNIAL     FAIR      55  49  80 CALM      30.37R
BROOMFIELD     FAIR      54  50  87 N10       30.38R
FORT COLLINS   FAIR      57  49  74 N8        30.37R
LONGMONT       FAIR      59  52  77 N6        30.38S
$$

COZ041-046-047-076>085-087-088-251400-
...PIKES PEAK/PALMER DIVIDE AND SOUTHERN FOOTHILLS...

CITY           SKY/WX    TMP DP  RH WIND       PRES   REMARKS
COLO. SPRINGS  FAIR      57  50  77 NE3       30.39R
A. F. ACADEMY  FAIR      51  46  81 CALM      30.39S
SCHRIEVER AFB  FAIR      55  51  86 N6        30.39S
CHEYENNE MTN   PTSUNNY   56  48  75 NE3       30.36R
ELLICOTT       FAIR     N/A N/A N/A E9        30.37S
FALCON           N/A     55  51  88 E3        30.42S
FORT CARSON    FAIR      58  48  70 NW5       30.36S
LIMON          FAIR      52  47  83 CALM      30.36R
MONUMENT HILL  FAIR      54  48  82 S6        30.42S
CANON CITY     CLOUDY    57  54  88 CALM      30.34S
WALSENBURG     PTSUNNY   63  50  63 CALM      30.37R
TRINIDAD       CLOUDY    62  52  69 W5        30.35S
$$

COZ042>045-048>051-090-091-251400-
...NORTHEAST COLORADO...

CITY           SKY/WX    TMP DP  RH WIND       PRES   REMARKS
GREELEY ARPT   FAIR      56  48  74 NE9       30.36R
AKRON          PTSUNNY   56  48  74 SE13      30.35S
BURLINGTON     FAIR      56  50  80 SE10      30.32R
WRAY           TSTM      54  54 100 N5        30.38R
YUMA           TSTM      52  50  93 E6        30.35S
STERLING       CLOUDY    54  48  82 NE5       30.35R
HOLYOKE        NOT AVBL
FORT MORGAN    PTSUNNY   56  53  89 E12       30.34S
$$

COZ086-089-092>099-251400-
...SOUTHEAST COLORADO...

CITY           SKY/WX    TMP DP  RH WIND       PRES   REMARKS
PUEBLO         CLOUDY    63  53  70 N5        30.31R
LA JUNTA       PTSUNNY   62  55  77 E9        30.29R
LAMAR          CLOUDY    65  56  72 E7        30.28S
SPRINGFIELD      N/A     64  59  83 S13       30.32R
$$




USA.gov is the U.S. government's official web portal to all federal, state and local government web resources and services.